AirNav   Phillips 66 Aviation Fuel
 
 802 users online  

4N1 Greenwood Lake Airport
West Milford, New Jersey, USA

GOING TO WEST MILFORD?


FAA INFORMATION EFFECTIVE 19 JULY 2018

Location

FAA Identifier: 4N1
Lat/Long: 41-07-42.2000N / 074-20-47.5000W
41-07.703333N / 074-20.791667W
41.1283889 / -74.3465278
(estimated)
Elevation: 789.6 ft. / 240.7 m (surveyed)
Variation: 13W (1995)
From city: 1 mile E of WEST MILFORD, NJ
Time zone: UTC -4 (UTC -5 during Standard Time)
Zip code: 07480

Airport Operations

Airport use: Open to the public
Activation date: 06/1960
Control tower: no
ARTCC: NEW YORK CENTER
FSS: MILLVILLE FLIGHT SERVICE STATION
NOTAMs facility: MIV (NOTAM-D service available)
Attendance: 0800-1700
Pattern altitude: 1798.6 ft. MSL
Wind indicator: lighted
Segmented circle: no
Lights: ACTVT MIRL RY 06/24 - CTAF.
Beacon: white-green (lighted land airport)
Operates sunset to sunrise.

Airport Communications

CTAF: 122.9
NEW YORK APPROACH: 127.6
NEW YORK DEPARTURE: 127.6
WX ASOS at FWN (13 nm W): 118.525 (973-875-0859)
WX ASOS at CDW (15 nm S): 135.5 (973-575-4417)
WX AWOS-3 at MMU (20 nm S): PHONE 973-290-0135

Nearby radio navigation aids

VOR radial/distance  VOR name  Freq  Var
SAXr078/9.4SPARTA VORTAC115.7011W
HUOr158/20.2HUGUENOT VOR/DME116.1011W
TEBr334/21.2TETERBORO VOR/DME108.4011W
STWr082/24.9STILLWATER VOR/DME109.6011W
BWZr058/29.3BROADWAY VOR/DME114.2011W
LGAr326/29.9LA GUARDIA VOR/DME113.1012W
CMKr267/35.7CARMEL VOR/DME116.6012W
CRIr337/37.1CANARSIE VOR/DME112.3011W
SBJr039/37.3SOLBERG VOR/DME112.9010W
JFKr331/39.6KENNEDY VOR/DME115.9012W
IGNr228/39.9KINGSTON VOR/DME117.6012W

 
NDB name  Hdg/Dist  Freq  Var  ID
CHATHAM022/23.625413WCAT -.-. .- -
STANWYCK222/27.626112WSKU ... -.- ..-
BRIDGE340/39.741412WOGY --- --. -.--

Airport Services

Fuel available: 100LL JET-A
Parking: tiedowns
Airframe service: MAJOR
Powerplant service: MAJOR
Bottled oxygen: NONE
Bulk oxygen: NONE

Runway Information

Runway 6/24

Dimensions: 3471 x 60 ft. / 1058 x 18 m
Surface: asphalt, in good condition
Runway edge lights: medium intensity
RUNWAY 6  RUNWAY 24
Latitude: 41-07.510958N41-07.894688N
Longitude: 074-21.072025W074-20.511670W
Elevation: 789.3 ft.789.4 ft.
Gradient: 0.003% UP0.003% DOWN
Traffic pattern: rightleft
Runway heading: 061 magnetic, 048 true241 magnetic, 228 true
Markings: nonprecision, in good conditionnonprecision, in good condition
Visual slope indicator: 2-light PAPI on left (3.50 degrees glide path)
PAPI OPERATES CONTINOUSLY.
Runway end identifier lights: nono
Touchdown point: yes, no lightsyes, no lights
Obstructions: 192 ft. trees, 1988 ft. from runway, 170 ft. right of centerline, 9:1 slope to clear
TREES BELOW RWY END, CLIFF.
23 ft. tree, 680 ft. from runway, 132 ft. left of centerline, 20:1 slope to clear

Airport Ownership and Management from official FAA records

Ownership: Publicly-owned
Owner: N.J. DEPT. TRANSPORTATION
1035 PARKWAY AVE. P.O. BOX 610, PO BOX 600
TRENTON, NJ 08625
Phone 609-530-2900
Manager: TIM WAGNER
126A AIRPORT RD BOX 1
WEST MILFORD, NJ 07480
Phone 973-728-7721

Airport Operational Statistics

Aircraft based on the field: 58
Single engine airplanes: 52
Multi engine airplanes: 4
Helicopters: 1
Ultralights: 1
    
Aircraft operations: avg 38/day *
74% local general aviation
26% transient general aviation
* for 12-month period ending 31 December 2017

Additional Remarks

RY 06/24 STEEP ROCK LEDGES LCTD JUST BYD BOTH RY ENDS.
ARPT SUBJECT TO GUSTING WIND & FREQUENT CROSSWINDS.
SOME RY AND TY LGTS TALLER THAN STANDARD.
GCO AVBL ON FREQ 121.725 THRU NYAI FSS, IF UNABLE, CTC NEW YORK APCH AT 800-645-3206.
DEER AND BIRDS ON AND INVOF ARPT.

Instrument Procedures

NOTE: All procedures below are presented as PDF files. If you need a reader for these files, you should download the free Adobe Reader.

NOT FOR NAVIGATION. Please procure official charts for flight.
FAA instrument procedures published for use from 19 July 2018 at 0901Z to 16 August 2018 at 0900Z.

 
IAPs - Instrument Approach Procedures
RNAV (GPS) RWY 06   download (185KB)
RNAV (GPS) RWY 24   download (202KB)
NOTE: Special Take-Off Minimums/Departure Procedures apply   download (150KB)

Other nearby airports with instrument procedures:

N07 - Lincoln Park Airport (11 nm S)
KFWN - Sussex Airport (13 nm W)
KCDW - Essex County Airport (15 nm S)
06N - Randall Airport (18 nm N)
12N - Aeroflex-Andover Airport (19 nm W)
KMMU - Morristown Municipal Airport (20 nm S)
 
Loc | Ops | Rwys | IFR | FBO | Links
Com | Nav | Svcs | Stats | Notes


 
Area around 4N1 (Greenwood Lake Airport)
 
Road maps at: MapQuest Bing Google
 
Aerial photo
WARNING: Photo may not be current or correct
Aerial photo of 4N1 (Greenwood Lake Airport)
Photo by Wendy Silcox McPherson
Photo taken 17-Nov-2012
looking south.

Do you have a better or more recent aerial photo of Greenwood Lake Airport that you would like to share? If so, please send us your photo.

 
Sectional chart

 
Airport distance calculator
Flying to Greenwood Lake Airport? Find the distance to fly.

From to 4N1

Sunrise and sunset
Times for 22-Jul-2018
 Local
(UTC-4)
 Zulu
(UTC)
Morning civil twilight05:1309:13
Sunrise05:4509:45
Sunset20:2300:23
Evening civil twilight20:5500:55

Current date and time
Zulu (UTC)  23-Jul-2018 03:16:11
Local (UTC-4)  22-Jul-2018 23:16:11
 
METAR
KFWN 
14nm W 
230253Z AUTO 00000KT 10SM BKN016 OVC022 24/23 A3002 RMK AO2 SLP161 60001 T02390228 51006
KCDW 
15nm S 
230253Z 15006KT 5SM -RA BR BKN008 OVC015 24/24 A3002 RMK AO2 CIG 006V010 SLP170 P0002 60009 T02390239 51013
K12N 
19nm W 
230254Z AUTO 00000KT 24/23 A3002 RMK AO1 SLP155 60001 T02390233 50013
KTEB 
21nm SE 
230251Z 17010KT 4SM -RA BR OVC010 25/24 A3000 RMK AO2 RAB0158E21B50 SLP160 P0000 60003 T02500239 51013 $
KMMU 
21nm S 
230255Z AUTO 00000KT 5SM BR OVC007 24/24 A3001 RMK AO2 LTG DSNT W
KMGJ 
24nm N 
SuperAWOS
230254Z AUTO A3003 RMK AO2 SLPNO 51010 PWINO $
KSWF 
25nm NE 
230245Z 13006KT 4SM -RA BR BKN020 OVC030 23/23 A3005
KNYC 
27nm SE 
230254Z AUTO 3SM -RA BR OVC007 24/23 A3005 RMK AO2 P0000 T02390233 $
TAF
KTEB 
21nm SE 
221918Z 2219/2324 15012KT P6SM VCSH BKN015 BKN025 BKN040 TEMPO 2220/2224 SCT015 BKN025 FM230000 15008KT P6SM VCSH BKN010 OVC025 FM230200 15008KT 2SM SHRA OVC010 FM231300 15010KT 5SM SHRA BKN015 OVC030 FM231600 15012KT 6SM SHRA BKN020 OVC030
KSWF 
25nm NE 
230006Z 2300/2406 13010KT 5SM -SHRA BR BKN005 OVC020 TEMPO 2300/2302 5SM -SHRA BR SCT005 BKN010 OVC020 FM230200 11007KT 4SM -SHRA BR OVC007 TEMPO 2308/2312 2SM -SHRA BR BKN004 OVC009 FM231500 14011KT 5SM SHRA BR BKN012 OVC020 FM240000 15008KT 3SM -SHRA BR OVC009 AMD NOT SKED
NOTAMs
Click for the latest NOTAMs
NOTAMs are issued by the DoD/FAA and will open in a separate window not controlled by AirNav.

 

 
 

FBO, Fuel Providers, and Aircraft Ground Support

  
 Business Name 
 
 Contact 
 
 Services / Description 
 
Fuel Prices
 
Comments
  
Greenwood Lake Airport Management 973-728-7721
[web site]
[email]
Airport management, Aviation fuel, Aircraft ground handling, Aircraft parking (ramp or tiedown), Hangars, Hangar leasing / sales, Passenger terminal and lounge, ...

More info about Greenwood Lake Airport Management
Phillips 66
100LL Jet A
FS $5.49 $5.29 
SS $5.19 $5.29 
 Updated 21-Jul-2018
  no comments
FS=Full service
SS=Self service
Update Fuel Prices
 

Would you like to see your business listed on this page?

 If your business provides an interesting product or service to pilots, flight crews, aircraft, or users of the Greenwood Lake Airport, you should consider listing it here.  To start the listing process, click on the button below
 
Add a business
 

Other Pages about Greenwood Lake Airport

Update a link
 
Copyright © AirNav, LLC. All rights reserved. Privacy Policy  Contact